Location: La Bastide
(43.1661°N, 1.2755°E)
Time: 08:31:12
(UTC+00:00)

Cosmos 1953 Rocket - Pass Details

Date: 25 March 2026
Orbit: 599 x 626 km, 82.5° (Epoch: 18 April)

Event Time Altitude Azimuth Distance (km) Brightness Sun altitude
Rises 04:35:47 0° 353° (N) 2,904 7.1 -14.1°
Reaches altitude 10° 04:38:01 10° 356° (N) 1,997 6.3 -13.7°
Maximum altitude 04:42:27 72° 81° (E) 657 3.8 -12.9°
Drops below altitude 10° 04:46:51 10° 166° (SSE) 1,991 6.2 -12.1°
Sets 04:49:05 0° 168° (SSE) 2,895 7.0 -11.7°
